DW0713 Weather Reports


time (UTC)temp
F
wind
direction
speed
knots
gust
knots
rain 1hr
in
rain 24hr
in
rain mn
in
humidity
%
barometer
mb
20260906214823 94 101 5.2 15.6 0.00 0.00 0.00 26 1011.4
20260906214328 94 135 11.3 17.4 0.00 0.00 0.00 25 1011.6
20260906213829 93 157 9.6 17.4 0.00 0.00 0.00 26 1011.6
20260906213335 93 138 6.1 20.0 0.00 0.00 0.00 26 1011.8
20260906212831 94 142 12.2 20.0 0.00 0.00 0.00 25 1011.6
20260906212320 94 175 9.6 16.5 0.00 0.00 0.00 25 1011.8
20260906211823 93 212 5.2 15.6 0.00 0.00 0.00 26 1011.8
20260906211328 93 194 9.6 15.6 0.00 0.00 0.00 26 1011.9
20260906210830 93 121 7.0 15.6 0.00 0.00 0.00 25 1011.9
20260906210356 93 113 5.2 13.0 0.00 0.00 0.00 25 1012.0
20260906205830 93 194 7.0 15.6 0.00 0.00 0.00 25 1012.1
20260906205335 93 182 9.6 18.2 0.00 0.00 0.00 25 1012.1
20260906204820 93 164 13.0 18.2 0.00 0.00 0.00 24 1012.3
20260906204322 93 134 7.0 13.9 0.00 0.00 0.00 26 1012.3
20260906203828 93 164 6.1 13.9 0.00 0.00 0.00 26 1012.5
20260906203335 93 198 9.6 13.0 0.00 0.00 0.00 26 1012.4
20260906202851 92 117 3.5 11.3 0.00 0.00 0.00 29 1012.4
20260906202336 92 185 4.3 12.2 0.00 0.00 0.00 28 1012.6
20260906201825 92 214 8.7 12.2 0.00 0.00 0.00 28 1012.6
20260906201327 91 221 6.1 11.3 0.00 0.00 0.00 29 1012.7
20260906200829 91 147 5.2 12.2 0.00 0.00 0.00 32 1012.9
20260906200332 91 190 5.2 16.5 0.00 0.00 0.00 31 1012.7
20260906195830 92 132 11.3 16.5 0.00 0.00 0.00 31 1012.9
20260906195333 92 191 7.8 16.5 0.00 0.00 0.00 30 1012.9
20260906194817 92 175 7.0 9.6 0.00 0.00 0.00 31 1013.1
20260906194323 91 187 5.2 12.2 0.00 0.00 0.00 31 1013.0
20260906193826 91 174 7.8 18.2 0.00 0.00 0.00 31 1013.4
20260906193333 91 141 8.7 18.2 0.00 0.00 0.00 31 1013.4
20260906192827 90 196 4.3 13.0 0.00 0.00 0.00 31 1013.5
20260906192328 90 161 8.7 13.0 0.00 0.00 0.00 33 1013.5
20260906191835 90 176 7.8 13.9 0.00 0.00 0.00 33 1013.5
20260906191321 90 203 10.4 13.9 0.00 0.00 0.00 33 1013.7
20260906190823 89 185 4.3 11.3 0.00 0.00 0.00 33 1013.8
20260906190326 89 144 5.2 13.0 0.00 0.00 0.00 33 1013.8
20260906185820 89 173 8.7 13.0 0.00 0.00 0.00 32 1013.9
20260906185322 89 194 8.7 12.2 0.00 0.00 0.00 33 1014.0
20260906184849 89 148 3.5 13.9 0.00 0.00 0.00 33 1014.0
20260906184331 89 184 9.6 13.9 0.00 0.00 0.00 34 1014.2
20260906183854 88 182 4.3 15.6 0.00 0.00 0.00 35 1014.2
20260906183336 88 195 9.6 15.6 0.00 0.00 0.00 34 1014.3
20260906182832 87 193 7.0 11.3 0.00 0.00 0.00 34 1014.4
20260906182334 87 179 3.5 11.3 0.00 0.00 0.00 33 1014.5
20260906181836 87 184 7.8 13.0 0.00 0.00 0.00 36 1014.5
20260906181323 87 189 6.1 13.0 0.00 0.00 0.00 38 1014.7
20260906180826 86 129 8.7 13.9 0.00 0.00 0.00 38 1014.8
20260906180350 86 158 9.6 15.6 0.00 0.00 0.00 39 1014.9
20260906175845 87 145 11.3 15.6 0.00 0.00 0.00 39 1015.0
20260906175329 86 163 7.8 16.5 0.00 0.00 0.00 41 1015.1
20260906174832 86 190 8.7 16.5 0.00 0.00 0.00 41 1015.2
20260906174354 85 188 7.0 15.6 0.00 0.00 0.00 42 1015.3
20260906173835 85 156 9.6 17.4 0.00 0.00 0.00 42 1015.5
20260906173320 85 190 9.6 17.4 0.00 0.00 0.00 42 1015.6
20260906172856 84 192 7.8 19.1 0.00 0.00 0.00 43 1015.6
20260906172318 84 158 10.4 17.4 0.00 0.00 0.00 45 1015.6
20260906171823 84 166 10.4 17.4 0.00 0.00 0.00 44 1015.8
20260906171324 84 141 8.7 18.2 0.00 0.00 0.00 45 1015.8
20260906170829 83 181 8.7 20.0 0.00 0.00 0.00 45 1015.9
20260906170333 83 163 13.9 20.0 0.00 0.00 0.00 46 1016.0
20260906165829 82 132 12.2 17.4 0.00 0.00 0.00 46 1016.2
20260906165318 82 168 11.3 17.4 0.00 0.00 0.00 46 1016.3
20260906164825 82 182 10.4 17.4 0.00 0.00 0.00 47 1016.3
20260906164329 82 200 9.6 16.5 0.00 0.00 0.00 47 1015.4
20260906163831 81 196 9.6 17.4 0.00 0.00 0.00 48 1015.5
20260906163333 81 208 10.4 18.2 0.00 0.00 0.00 48 1015.5
20260906162829 80 159 11.3 19.1 0.00 0.00 0.00 49 1015.5
20260906162351 80 146 13.0 19.1 0.00 0.00 0.00 48 1015.6
20260906161833 80 136 9.6 13.9 0.00 0.00 0.00 48 1015.7
20260906161357 80 139 9.6 19.1 0.00 0.00 0.00 48 1015.8
20260906160842 80 174 8.7 19.1 0.00 0.00 0.00 49 1015.9
20260906160344 79 123 10.4 20.0 0.00 0.00 0.00 50 1016.1
20260906155817 79 132 13.9 18.2 0.00 0.00 0.00 50 1016.1
20260906155323 78 176 10.4 19.1 0.00 0.00 0.00 51 1016.1
20260906154824 0 196 11.3 19.1 0.00 0.00 0.00 1016.1
20260906154329 0 195 12.2 20.9 0.00 0.00 0.00 1016.3
20260906153836 0 196 11.3 20.9 0.00 0.00 0.00 1016.2
20260906153339 0 161 12.2 19.1 0.00 0.00 0.00 1016.3
20260906152834 0 130 12.2 18.2 0.00 0.00 0.00 1016.2
20260906152336 0 141 11.3 20.9 0.00 0.00 0.00 1016.2
20260906151818 0 149 12.2 20.9 0.00 0.00 0.00 1016.2
20260906151324 0 191 12.2 19.1 0.00 0.00 0.00 1016.2
20260906150826 0 184 11.3 22.6 0.00 0.00 0.00 1016.2
20260906150328 0 176 16.5 22.6 0.00 0.00 0.00 1016.1
20260906145845 0 192 13.0 23.5 0.00 0.00 0.00 1016.2
20260906145329 0 154 11.3 25.2 0.00 0.00 0.00 1016.1
20260906144832 0 178 16.5 25.2 0.00 0.00 0.00 1016.2
20260906144333 0 189 10.4 17.4 0.00 0.00 0.00 1016.1
20260906143823 0 170 9.6 20.0 0.00 0.00 0.00 1016.2
20260906143326 0 174 10.4 20.9 0.00 0.00 0.00 1016.2
20260906142822 0 176 10.4 16.5 0.00 0.00 0.00 1016.2
20260906142324 0 187 9.6 19.1 0.00 0.00 0.00 1016.2
20260906141828 0 157 12.2 19.1 0.00 0.00 0.00 1016.1
20260906141331 0 150 13.0 18.2 0.00 0.00 0.00 1016.1
20260906140836 0 165 7.0 11.3 0.00 0.00 0.00 1016.0
20260906140341 0 142 7.0 11.3 0.00 0.00 0.00 1015.9
20260906135819 0 144 7.0 11.3 0.00 0.00 0.00 1015.9
20260906135325 0 146 7.8 11.3 0.00 0.00 0.00 1015.8
20260906134830 0 186 7.0 9.6 0.00 0.00 0.00 1015.9
20260906134334 0 172 6.1 11.3 0.00 0.00 0.00 1015.8
20260906133822 0 192 6.1 11.3 0.00 0.00 0.00 1015.8
20260906133324 0 188 7.0 9.6 0.00 0.00 0.00 1015.8
20260906132821 0 191 5.2 7.8 0.00 0.00 0.00 1015.9
20260906132327 0 175 4.3 7.8 0.00 0.00 0.00 1015.9
20260906131833 0 175 5.2 7.8 0.00 0.00 0.00 1015.7
20260906131318 0 168 3.5 7.0 0.00 0.00 0.00 1015.7
20260906130823 0 184 4.3 7.8 0.00 0.00 0.00 1015.7
20260906130328 0 164 6.1 7.0 0.00 0.00 0.00 1015.8
20260906125825 0 167 5.2 7.0 0.00 0.00 0.00 1015.8
20260906125352 0 186 5.2 7.0 0.00 0.00 0.00 1015.7
20260906124836 0 184 5.2 7.0 0.00 0.00 0.00 1015.7
20260906124320 0 186 5.2 7.0 0.00 0.00 0.00 1015.6
20260906123826 0 179 4.3 8.7 0.00 0.00 0.00 1015.6
20260906123328 0 180 5.2 8.7 0.00 0.00 0.00 1015.6
20260906122823 0 174 6.1 7.0 0.00 0.00 0.00 1015.7
20260906122349 0 183 6.1 7.0 0.00 0.00 0.00 1015.6
20260906121831 0 180 5.2 7.0 0.00 0.00 0.00 1015.6
20260906121332 0 169 3.5 7.0 0.00 0.00 0.00 1015.7
20260906120859 0 191 4.3 7.8 0.00 0.00 0.00 1015.7
20260906120400 0 167 4.3 8.7 0.00 0.00 0.00 1015.7
20260906115836 0 140 5.2 9.6 0.00 0.00 0.00 1015.6
20260906115318 0 188 5.2 10.4 0.00 0.00 0.00 1015.6
20260906114823 0 191 5.2 10.4 0.00 0.00 0.00 1015.5
20260906114326 0 198 7.0 8.7 0.00 0.00 0.00 1015.5
20260906113829 0 188 6.1 8.7 0.00 0.00 0.00 1015.5
20260906113331 0 185 6.1 8.7 0.00 0.00 0.00 1015.5
20260906112827 0 167 6.1 9.6 0.00 0.00 0.00 1015.4
20260906112333 0 183 7.0 9.6 0.00 0.00 0.00 1015.4
20260906111836 0 146 7.8 9.6 0.00 0.00 0.00 1015.5
20260906111322 0 132 7.0 10.4 0.00 0.00 0.00 1015.5
20260906110829 0 165 7.8 10.4 0.00 0.00 0.00 1015.4
20260906110335 0 195 7.0 8.7 0.00 0.00 0.00 1015.5
20260906105833 0 182 7.0 8.7 0.00 0.00 0.00 1015.4
20260906105335 0 198 6.1 8.7 0.00 0.00 0.00 1015.4
20260906104838 0 179 6.1 7.8 0.00 0.00 0.00 1015.4
20260906104322 0 170 6.1 7.8 0.00 0.00 0.00 1015.4
20260906103827 0 176 5.2 7.8 0.00 0.00 0.00 1015.4
20260906103333 0 179 5.2 7.8 0.00 0.00 0.00 1015.6
20260906102834 0 157 5.2 7.8 0.00 0.00 0.00 1015.5
20260906102400 0 159 5.2 7.8 0.00 0.00 0.00 1015.6
20260906101822 0 150 2.6 9.6 0.00 0.00 0.00 1015.5
20260906101323 0 132 5.2 9.6 0.00 0.00 0.00 1015.5
20260906100826 0 146 4.3 7.8 0.00 0.00 0.00 1015.5
20260906100329 0 164 4.3 7.8 0.00 0.00 0.00 1015.6
20260906095824 0 171 5.2 9.6 0.00 0.00 0.00 1015.5
20260906095326 0 168 4.3 9.6 0.00 0.00 0.00 1015.4
20260906094830 0 184 6.1 11.3 0.00 0.00 0.00 1015.4
20260906094352 0 191 7.0 11.3 0.00 0.00 0.00 1015.4
20260906093834 0 175 6.1 8.7 0.00 0.00 0.00 1015.5
20260906093320 0 166 5.2 7.0 0.00 0.00 0.00 1015.6
20260906092839 0 130 3.5 7.0 0.00 0.00 0.00 1015.5
20260906092324 0 144 4.3 7.8 0.00 0.00 0.00 1015.4
20260906091850 0 149 4.3 7.8 0.00 0.00 0.00 1015.4
20260906091331 0 152 3.5 6.1 0.00 0.00 0.00 1015.4
20260906090833 0 144 4.3 6.1 0.00 0.00 0.00 1015.3
20260906090335 0 150 4.3 5.2 0.00 0.00 0.00 1015.6
20260906085338 0 157 1.7 4.3 0.00 0.00 0.00 1015.6
20260906084840 0 158 1.7 4.3 0.00 0.00 0.00 1015.6
20260906084343 0 159 1.7 4.3 0.00 0.00 0.00 1015.5
20260906083827 0 163 2.6 3.5 0.00 0.00 0.00 1015.5
20260906083331 0 163 1.7 5.2 0.00 0.00 0.00 1015.5
20260906082846 0 161 3.5 5.2 0.00 0.00 0.00 1015.4
20260906082328 0 184 4.3 6.1 0.00 0.00 0.00 1015.4
20260906081831 0 157 3.5 6.1 0.00 0.00 0.00 1015.5
20260906081333 0 157 4.3 6.1 0.00 0.00 0.00 1015.6
20260906080822 0 145 5.2 6.1 0.00 0.00 0.00 1015.5
20260906080328 0 139 3.5 5.2 0.00 0.00 0.00 1015.5
20260906075844 0 119 1.7 4.3 0.00 0.00 0.00 1015.6
20260906075346 0 65 1.7 4.3 0.00 0.00 0.00 1015.5
20260906074829 0 148 1.7 5.2 0.00 0.00 0.00 1015.5
20260906074330 0 150 0.9 6.1 0.00 0.00 0.00 1015.6
20260906073832 0 144 3.5 6.1 0.00 0.00 0.00 1015.7
20260906073337 0 146 4.3 6.1 0.00 0.00 0.00 1015.7
20260906072833 0 156 1.7 6.1 0.00 0.00 0.00 1015.7
20260906072337 0 155 3.5 6.1 0.00 0.00 0.00 1015.8
20260906071822 0 155 4.3 5.2 0.00 0.00 0.00 1015.7
20260906071325 0 157 2.6 6.1 0.00 0.00 0.00 1015.7
20260906070829 0 180 3.5 6.1 0.00 0.00 0.00 1015.7
20260906070339 0 144 4.3 6.1 0.00 0.00 0.00 1015.7
20260906065815 0 154 4.3 6.1 0.00 0.00 0.00 1015.7
20260906065317 0 192 2.6 7.0 0.00 0.00 0.00 1015.8
20260906064802 0 193 4.3 7.8 0.00 0.00 0.00 1015.8
20260906064308 0 182 5.2 9.6 0.00 0.00 0.00 1015.7
20260906063832 0 170 7.0 11.3 0.00 0.00 0.00 1015.9
20260906063338 0 196 7.8 11.3 0.00 0.00 0.00 1015.8
20260906062831 0 209 8.7 11.3 0.00 0.00 0.00 1015.9
20260906062315 0 186 7.0 9.6 0.00 0.00 0.00 1015.9
20260906061800 0 202 4.3 7.8 0.00 0.00 0.00 1016.0
20260906061305 0 186 5.2 7.8 0.00 0.00 0.00 1016.0
20260906060807 0 190 5.2 7.8 0.00 0.00 0.00 1016.1
20260906060309 0 202 4.3 7.8 0.00 0.00 0.00 1015.9
20260906055805 0 190 1.7 5.2 0.00 0.00 0.00 1015.9
20260906055310 0 227 3.5 5.2 0.00 0.00 0.00 1015.9
20260906054813 0 28 0.0 0.0 0.00 0.00 0.00 1015.8
20260906054336 0 30 0.0 0.0 0.00 0.00 0.00 1015.8
20260906053818 0 28 0.0 0.0 0.00 0.00 0.00 1015.7
20260906053300 0 19 0.0 0.0 0.00 0.00 0.00 1015.8
20260906052841 0 18 0.0 0.0 0.00 0.00 0.00 1015.9
20260906052305 0 17 0.0 0.0 0.00 0.00 0.00 1015.8
20260906051807 0 18 0.0 0.0 0.00 0.00 0.00 1015.6
20260906051312 0 18 0.0 0.0 0.00 0.00 0.00 1015.6
20260906050817 0 360 0.0 1.7 0.00 0.00 0.00 1015.6
20260906050302 0 360 0.0 3.5 0.00 0.00 0.00 1015.7
20260906045819 0 360 1.7 3.5 0.00 0.00 0.00 1015.7
20260906045306 0 360 0.9 3.5 0.00 0.00 0.00 1015.6
20260906044807 0 360 1.7 4.3 0.00 0.00 0.00 1015.6
20260906044313 0 360 2.6 4.3 0.00 0.00 0.00 1015.6
20260906043839 0 360 0.9 5.2 0.00 0.00 0.00 1015.7
20260906043321 0 13 2.6 5.2 0.00 0.00 0.00 1015.6
20260906042819 0 13 3.5 5.2 0.00 0.00 0.00 1015.6
20260906042302 0 360 3.5 5.2 0.00 0.00 0.00 1015.6
20260906041826 0 360 1.7 4.3 0.00 0.00 0.00 1015.5
20260906041306 0 360 0.9 5.2 0.00 0.00 0.00 1015.5
20260906040808 0 360 3.5 5.2 0.00 0.00 0.00 1015.5
20260906040315 0 360 4.3 6.1 0.00 0.00 0.00 1015.5
20260906035812 0 360 3.5 6.1 0.00 0.00 0.00 1015.6
20260906035316 0 355 4.3 5.2 0.00 0.00 0.00 1015.6
20260906034818 0 16 3.5 4.3 0.00 0.00 0.00 1015.5
20260906034320 0 17 2.6 5.2 0.00 0.00 0.00 1015.4
20260906033807 0 19 2.6 5.2 0.00 0.00 0.00 1015.4
20260906033313 0 47 0.9 1.7 0.00 0.00 0.00 1015.5
20260906032807 0 113 0.0 1.7 0.00 0.00 0.00 1015.5
20260906032310 0 111 0.0 2.6 0.00 0.00 0.00 1015.5
20260906031815 0 111 1.7 3.5 0.00 0.00 0.00 1015.6
20260906031317 0 111 0.9 3.5 0.00 0.00 0.00 1015.5
20260906030758 0 87 0.9 4.3 0.00 0.00 0.00 1015.5
20260906030304 0 87 2.6 4.3 0.00 0.00 0.00 1015.5
20260906025839 0 87 0.0 4.3 0.00 0.00 0.00 1015.4
20260906025321 0 87 0.9 4.3 0.00 0.00 0.00 1015.3
20260906024825 0 65 0.9 4.3 0.00 0.00 0.00 1015.1
20260906024306 0 38 0.9 8.7 0.00 0.00 0.00 1015.0
20260906023829 0 26 1.7 8.7 0.00 0.00 0.00 1014.7
20260906023313 0 26 1.7 6.1 0.00 0.00 0.00 1014.8
20260906022811 0 33 2.6 6.1 0.00 0.00 0.00 1014.8
20260906022259 0 19 3.5 5.2 0.00 0.00 0.00 1014.6
20260906021825 0 17 2.6 5.2 0.00 0.00 0.00 1014.6
20260906021309 0 15 1.7 5.2 0.00 0.00 0.00 1014.5
20260906020813 0 27 0.9 5.2 0.00 0.00 0.00 1014.4
20260906020316 0 21 2.6 5.2 0.00 0.00 0.00 1014.3
20260906015814 0 43 1.7 6.1 0.00 0.00 0.00 1014.3
20260906015258 0 39 3.5 7.8 0.00 0.00 0.00 1014.3
20260906014803 0 9 4.3 7.8 0.00 0.00 0.00 1014.2
20260906014310 0 34 2.6 8.7 0.00 0.00 0.00 1014.2
20260906013815 0 24 4.3 7.8 0.00 0.00 0.00 1014.3
20260906013317 0 9 3.5 7.0 0.00 0.00 0.00 1014.3
20260906012831 0 5 3.5 8.7 0.00 0.00 0.00 1014.2
20260906012313 86 76 3.5 8.7 0.00 0.00 0.00 25 1014.3
20260906011801 86 43 2.6 7.8 0.00 0.00 0.00 25 1014.3
20260906011307 86 63 3.5 7.8 0.00 0.00 0.00 25 1014.3
20260906010811 87 55 5.2 8.7 0.00 0.00 0.00 24 1014.5
20260906010316 87 32 3.5 8.7 0.00 0.00 0.00 24 1014.3
20260906005831 88 70 2.6 8.7 0.00 0.00 0.00 24 1014.4
20260906005311 88 26 5.2 13.0 0.00 0.00 0.00 24 1014.2
20260906004815 88 5 6.1 13.0 0.00 0.00 0.00 23 1014.2
20260906004319 88 52 4.3 11.3 0.00 0.00 0.00 23 1014.2
20260906003822 89 5 4.3 9.6 0.00 0.00 0.00 23 1014.2
20260906003304 89 14 4.3 9.6 0.00 0.00 0.00 23 1014.2
20260906002820 89 38 5.2 9.6 0.00 0.00 0.00 23 1014.2
20260906002307 89 38 3.5 8.7 0.00 0.00 0.00 22 1014.3
20260906001808 90 28 3.5 7.0 0.00 0.00 0.00 22 1014.3
20260906001331 90 5 3.5 9.6 0.00 0.00 0.00 22 1014.3
20260906000820 91 59 4.3 10.4 0.00 0.00 0.00 22 1014.3
20260906000303 91 28 7.0 10.4 0.00 0.00 0.00 22 1014.2
20260905235818 91 5 7.0 9.6 0.00 0.00 0.00 21 1014.1
20260905235306 91 29 0.9 5.2 0.00 0.00 0.00 21 1014.1
20260905234809 91 42 0.9 6.1 0.00 0.00 0.00 21 1014.0
20260905234314 91 36 2.6 6.1 0.00 0.00 0.00 21 1014.0
20260905233817 92 60 1.7 5.2 0.00 0.00 0.00 21 1013.9
20260905233323 92 26 2.6 6.1 0.00 0.00 0.00 20 1014.0
20260905232820 92 346 4.3 6.1 0.00 0.00 0.00 21 1014.0
20260905232305 92 40 0.9 7.0 0.00 0.00 0.00 20 1014.0
20260905231828 92 325 3.5 7.0 0.00 0.00 0.00 20 1013.8
20260905231312 93 348 4.3 12.2 0.00 0.00 0.00 20 1013.8
20260905230815 93 306 5.2 12.2 0.00 0.00 0.00 20 1013.8
20260905230321 93 327 6.1 10.4 0.00 0.00 0.00 20 1013.8
20260905225816 92 5 3.5 10.4 0.00 0.00 0.00 20 1013.8
20260905225339 92 184 4.3 9.6 0.00 0.00 0.00 21 1013.9
20260905224820 92 267 5.2 9.6 0.00 0.00 0.00 21 1013.9
20260905224343 92 318 5.2 12.2 0.00 0.00 0.00 21 1013.8
20260905223823 92 289 3.5 12.2 0.00 0.00 0.00 20 1013.9
20260905223307 92 224 5.2 10.4 0.00 0.00 0.00 20 1013.9
20260905222806 92 287 6.1 10.4 0.00 0.00 0.00 19 1013.9
20260905222309 92 286 6.1 10.4 0.00 0.00 0.00 19 1013.9
20260905221812 92 244 6.1 15.6 0.00 0.00 0.00 19 1014.1
20260905221314 93 238 8.7 15.6 0.00 0.00 0.00 19 1014.1
20260905220800 93 232 10.4 15.6 0.00 0.00 0.00 19 1014.2
20260905220304 93 236 12.2 15.6 0.00 0.00 0.00 20 1014.2
20260905215819 93 215 7.0 11.3 0.00 0.00 0.00 20 1014.2
20260905215306 93 189 5.2 12.2 0.00 0.00 0.00 19 1014.2